Weather in Santander

Spain     43°27′41″N   3°48′21″W
temp.,
°C
wind,
m/s
gust,
m/s
humid.,
%
clouds,
%
prec.,
mm/h
press.,
hPa
HPBL,
m
9 may, sun
sun923:00+16nw2285100 0.0 100512
02:00+16wsw0180100 0.0 100215
05:00+16s2270100 0.0 100121
08:00+17sse71261100 0.0 1000210
11:00+20s71146100 0.0 1000468
14:00+17wnw6970100 0.0 1001719
17:00+16nw5773100 0.2 1001488
20:00+13nw7990100 1.7 1003604
10 may, mon
mon1023:00+13w5889100 5.4 1007737
02:00+12s238291 6.6 1008169
05:00+12ese228073 0.3 1008122
08:00+11sse23845 0.6 1009136
11:00+14se23575 0.0 1009504
14:00+17ene2355100 0.0 1007479
17:00+16nne656322 0.0 1007451
20:00+14nne557092 0.1 1008792
11 may, tue
tue1123:00+11nw7887100 7.5 1011764
02:00+12wsw6977100 12.3 10121098
05:00+12wnw101372100 1.0 10131338
08:00+11wsw711724 1.4 10151273
11:00+13wnw1013614 0.3 10171616
14:00+14wnw78572 0.3 10181062
17:00+14nw666041 0.0 10181129
20:00+14wnw4566100 0.1 1019927
12 may, wed
wed1223:00+12sw2280100 0.8 1019327
02:00+11ese1286100 1.8 1017182
05:00+10ese45875 0.0 1015212
08:00+10sse227966 0.0 1014102
11:00+15sse23605 0.0 1012338
14:00+16nnw7866100 0.0 1013447
17:00+14wnw12177733 0.6 10161415
20:00+14wnw91273100 0.8 10181312
13 may, thu
thu1323:00+13w81080100 2.0 10191028
02:00+12w578196 3.7 1018753
05:00+11sw238794 1.2 1017269
08:00+11se2284100 1.4 1015140
11:00+13ese3472100 0.0 1013343
14:00+16ese2365100 0.1 1010324
17:00+13s1388100 3.7 1009263
20:00+13w6989100 4.8 1011792